Terug naar catalogus

STARLINK-5270

ActiefCommunicatieVLEO
NORAD 55299·PAYLOAD·🇺🇸 United States

Gelanceerd Jan 19, 2023 vanaf Vandenberg Space Force Base

Loading…

Volgende Passages (komende 24 uur)

TLE

VersSource: CelesTrak SupGP

Epoch: Sep 15, 2026, 01:24 UTC

1 55299C 23010AG  26258.05881944 -.00007830  00000+0 -65601-3 0  2586
2 55299  69.9997 266.8456 0003840 264.6048 264.3946 14.98340368    14

Volg STARLINK-5270 in realtime met AllMySat

Download on the App Store